+ View the NASA Portal
+ Center for Near-Earth Object Studies
IMPORTANT:
The SSD Announcement email list is now available. Major changes are coming in the near future, including possible hostname and/or URL changes. To be notified of such changes, subscribe to this email list.
Please visit
this page
for more details.
Don't show this message again
JPL Small-Body Database Browser
Search:
[
help
]
109930 (2001 SZ34)
Classification:
Main-belt Asteroid
SPK-ID:
2109930
[
Ephemeris
|
Orbit Diagram
|
Orbital Elements
|
Mission Design
|
Physical Parameters
|
Discovery Circumstances
|
Close-Approach Data
]
[ show orbit diagram ]
Orbital Elements at Epoch 2458600.5 (2019-Apr-27.0) TDB
Reference:
JPL 16
(heliocentric ecliptic J2000)
Element
Value
Uncertainty (1-sigma)
Units
e
.0844045890236681
3.5455e-08
a
2.981479435161737
2.074e-08
au
q
2.729828888754393
1.0889e-07
au
i
10.05270925340486
4.6455e-06
deg
node
180.4549566940735
2.3679e-05
deg
peri
103.4169233876398
3.7378e-05
deg
M
228.8802120397625
2.9932e-05
deg
t
p
2459285.375911664016
(2021-Mar-11.87591166)
0.00015906
TDB
period
1880.382298008401
5.15
1.9621e-05
5.372e-08
d
yr
n
.1914504302562795
1.9977e-09
deg/d
Q
3.233129981569082
2.2491e-08
au
Orbit Determination Parameters
# obs. used (total)
664
data-arc span
8146 days (22.30 yr)
first obs. used
1996-11-14
last obs. used
2019-03-05
planetary ephem.
DE431
SB-pert. ephem.
SB431-N16
condition code
0
norm. resid. RMS
.60245
source
ORB
producer
Otto Matic
solution date
2019-Jul-13 10:35:57
Additional Information
Earth MOID
= 1.7358 au
Jupiter MOID
= 1.93688 au
T_jup
= 3.231
[ show covariance matrix ]
[
Ephemeris
|
Orbit Diagram
|
Orbital Elements
|
Mission Design
|
Physical Parameters
|
Discovery Circumstances
|
Close-Approach Data
]
Physical Parameter Table
Parameter
Symbol
Value
Units
Sigma
Reference
Notes
absolute magnitude
H
14.9
n/a
MPO436527
109930 (2001 SZ34)
Discovered 2001-Sep-16 by LINEAR at Socorro
Reference:
20051019/Numbers.arc
Last Updated:
2005-10-26
[ show close-approach data ]
[
Ephemeris
|
Orbit Diagram
|
Orbital Elements
|
Mission Design
|
Physical Parameters
|
Discovery Circumstances
|
Close-Approach Data
]
2019-Dec-11 17:08 UT
(server date/time)
Site Manager:
Ryan S. Park
Webmaster
:
Alan B. Chamberlin